Regional Weather Roundup
Issued by NWS Upton, NY

Current Version | Previous Version | Text Only | Print | Product List | Glossary On
Versions: 1 2 3 4 5 6 7 8 9 10 11 12 13 14 15 16 17 18 19 20 21 22 23 24 25 26 27 28 29 30 31 32 33 34 35 36 37 38 39 40 41 42 43
000
ASUS41 KOKX 271005
RWROKX

REGIONAL WEATHER ROUNDUP
NATIONAL WEATHER SERVICE NEW YORK NY
500 AM EST SAT DEC 27 2014

NOTE: "FAIR" INDICATES FEW OR NO CLOUDS BELOW 12,000 FEET WITH NO
SIGNIFICANT WEATHER AND/OR OBSTRUCTIONS TO VISIBILITY.

NYZ071-072-176-178-NJZ106-104-271100-
NEW YORK CITY METRO AREA


CITY           SKY/WX    TMP DP  RH WIND       PRES   REMARKS
CENTRAL PARK   MOCLDY    45  29  53 VRB3      30.22S
LAGUARDIA APRT MOCLDY    44  30  57 W3        30.20S
KENNEDY INTL   MOCLDY    38  31  76 SW7       30.21F WCI  33
NEWARK/LIBERTY MOCLDY    35  30  82 SW6       30.22R WCI  30
BRNX BOT. GARD   N/A     43  32  65 W7        30.21R
TETERBORO      MOCLDY    32  29  88 CALM      30.20S
$$

NYZ177-179-078>081-271100-
LONG ISLAND NEW YORK

CITY           SKY/WX    TMP DP  RH WIND       PRES   REMARKS
FARMINGDALE    PTCLDY    33  29  85 CALM      30.20S
ISLIP          PTCLDY    31  28  89 CALM      30.18S
SHIRLEY        CLEAR     30  27  88 CALM      30.19F
WESTHAMPTON    CLEAR     24  19  81 CALM      30.20F
MONTAUK POINT    N/A     43  34  70 W5        30.20R
$$

NYZ052-065-067-271100-
HUDSON VALLEY

CITY           SKY/WX    TMP DP  RH WIND       PRES   REMARKS
WHITE PLAINS   MOCLDY    37  29  72 NW6       30.18R WCI  32
NEWBURGH       MOCLDY    32  30  93 W7        30.19  WCI  26
MONTGOMERY     PTCLDY    29  27  92 SW6       30.18S WCI  23
POUGHKEEPSIE   MOCLDY    29  25  85 CALM      30.19F
ALBANY         CLOUDY    31  27  85 CALM      30.18F
$$

NJZ001-105-106-008-010-013-015-019>022-104-271100-
NEW JERSEY

CITY           SKY/WX    TMP DP  RH WIND       PRES   REMARKS
NEWARK/LIBERTY MOCLDY    35  30  82 SW6       30.22R WCI  30
TETERBORO      MOCLDY    32  29  88 CALM      30.20S
CALDWELL       MOCLDY    31  28  89 CALM      30.21S
MORRISTOWN     PTCLDY    30  28  93 CALM      30.21R
SOMERVILLE     PTCLDY    27  24  89 CALM      30.20S
SUSSEX         PTCLDY    28  26  92 CALM      30.20S
ANDOVER        NOT AVBL
TRENTON        PTCLDY    33  28  81 CALM      30.22R
MILLVILLE      PTCLDY    26  24  92 CALM      30.25R
ATLANTIC CITY  PTCLDY    31  29  92 SW5       30.25R WCI  26
WRIGHTSTOWN    CLOUDY    35  32  88 W2        30.20S
TOMS RIVER     CLEAR     27  27 100 CALM      30.23S
BELMAR         PTCLDY    36  27  69 W8        30.22R WCI  29
$$

PAZ047>061-062-071-271100-
EASTERN PENNSYLVANIA

CITY           SKY/WX    TMP DP  RH WIND       PRES   REMARKS
PHILADELPHIA   MOCLDY    34  31  88 CALM      30.25S
ALLENTOWN      PTCLDY    30  26  85 W5        30.23R WCI  25
SCRANTON       PTCLDY    33  29  85 S8        30.20R WCI  26
$$

CTZ002-004>006-009-010-012-RIZ004-006-007-MAZ004-011-015-271100-
SOUTHERN NEW ENGLAND
 IN CT

CITY           SKY/WX    TMP DP  RH WIND       PRES   REMARKS
BRADLEY INTL   PTCLDY    28  25  88 CALM      30.18S
HARTFORD       PTCLDY    28  27  96 SE6       30.18F WCI  22
DANBURY        CLOUDY    29  25  85 CALM      30.19F
WTRBRY/OXFORD  MOCLDY    37  25  60 NW5       30.17F WCI  34
BRIDGEPORT     PTCLDY    38  33  82 CALM      30.19S
MERIDEN        PTCLDY    28  25  88 CALM      30.19S
NEW HAVEN      PTCLDY    31  27  85 CALM      30.18F
CHESTER        FAIR      39  30  70 NW5       30.17F
GROTON         CLEAR     28  27  96 CALM      30.19R FOG
WILLIMANTIC    PTCLDY    25  22  88 NE3       30.19S

 IN RI

CITY           SKY/WX    TMP DP  RH WIND       PRES   REMARKS
PROVIDENCE     CLEAR     35  28  75 CALM      30.17R
BLOCK ISLAND   CLEAR     41  30  65 W7        30.18R
WESTERLY       PTCLDY    30  28  92 CALM      30.19R

 IN MA

CITY           SKY/WX    TMP DP  RH WIND       PRES   REMARKS
BOSTON         PTCLDY    40  29  64 W8        30.15R WCI  34
WORCESTER      PTCLDY    31  26  82 SW8       30.14R WCI  23
WESTFIELD      PTCLDY    27  24  89 SW3       30.17S
PROVINCETOWN   CLEAR     43  34  70 W13       30.14S
NANTUCKET      CLEAR     39  35  86 W6        30.15F WCI  35
$$

ANZ330-335-338-340-345-350-353-355-271100-
COASTAL MARINE OBSERVATIONS


STATION/POSITION TIME  SKY/WX   TEMP    WIND        PRES    VSBY  WAVE
                                AIR SEA DIR/SP/G                  HT/PER
                 (UTC)          (F)     (DEG/KT/KT) (MB)    (MI)  (FT/S)
NY HARB ENTRANCE 1000            43 45  260/  8/ 10 1023.5          2/16
4S FIRE IS       1000               47                N/A           3/17
20S FIRE ISLAND  0900            47 49              1023.4          3/ 5
23SW MTP         1000                                 N/A           3/16
HUDSON CANYON    1000            49 54  300/ 12/ 16 1023.3
EXECUTION ROCKS  1000            42 42  230/  4/  6   N/A
WESTERN LI SOUND 1000            43     260/  4/  4   N/A           0
CENTRAL LI SOUND 0900            43 44  270/  8/ 10   N/A           2/ 3
EASTERN LI SOUND NOT AVBL
ROBBINS REEF     1000            41                 1021.7
$$


>>>>>>>>>>>>>>>>>>>>>>>>>>>> KEY <<<<<<<<<<<<<<<<<<<<<<<<<<<
>                                                          <
>     SKY/WX - SKY CONDITION/PRESENT WEATHER               <
>     TMP    - TEMPERATURE IN FAHRENHEIT                   <
>     DP     - DEWPOINT IN FAHRENHEIT                      <
>     RH     - RELATIVE HUMIDITY IN PERCENT                <
>     WIND   - DIRECTION AND SPEED IN MPH                  <
>     PRES   - MEAN SEA LEVEL PRESSURE IN INCHES OF HG     <
>     WCI    - WIND CHILL INDEX                            <
>     VSB    - VISIBILITY IN MILES                         <
>     HX     - HEAT INDEX                                  <
>     TC     - TEMPERATURE IN CELSIUS                      <
>     VRB    - VARIABLE WIND DIRECTION                     <
>                                                          <
>>>>>>>>>>>>>>>>>>>>>>>>>>>> KEY <<<<<<<<<<<<<<<<<<<<<<<<<<<





USA.gov is the U.S. government's official web portal to all federal, state and local government web resources and services.